STARLINK-3057, 49139

Orbit data source: Space-Track

STARLINK-3057, 49139 is a payload satellite owned by SpaceX/Seattle (US) in LEO that was launched on Tue, 14 Sep 2021 UTC via an FALCON 9 launch vehicle from the Air Force Western Test Range (AFWTR). Payload-class satellites include a variety of spacecraft equipped with specific instruments for various scientific and technological missions. These include communications satellites like Starlink; space stations such as the ISS; scientific satellites like the Hubble; Earth observation satellites from companies like Planet Labs, Umbra, and HawkEye 360; GPS; miniature CubeSats for education and research; and military/defense satellites.

Loading next visibility...
Identifier
49139, 2021-082K
Orbit
LEO
Country
Flag of USUS
Related business
Manufacturer
SpaceX/Seattle
Mission
Operational Commercial Communications
Bus & Motor
STARLINK, Unknown motor
Mass
297 kg wet, ~275 kg dry
Launch date (UTC)
2021-09-14 (5 years ago)
Launch vehicle
FALCON 9
Launch site
Air Force Western Test Range (AFWTR)
Object type
Payload
Rocket body
Debris
Shape & HBR
Box + 1 Pan, 10.1 m
Radar Cross Section
13.562 m², Large (>1 m²)

Expand to show TLE details & history
Last TLE update: 18 hours ago

TLE from 18 hours ago
0 STARLINK-3057
1 49139U 21082K   26125.35933041  .00000062  00000-0  13008-4 0  9997
2 49139  69.9987 111.5610 0003092 269.4529  90.6276 14.98328168255453
Epoch: 2026-05-05T08:37Z
TLE epoch observation values (Epoch: 2026-05-05T08:37:26.147Z)
Latitude
Longitude
118.96675°
Altitude
574.51 km
Speed
7.574 km/s
True Right ascension
07h 26m 14s
True Declination
0° 00' 00"
Sunlit
Object was in daylight at epoch
Visualization orbit readout
Latitude
Unknown
Longitude
Unknown
Altitude
Unknown
Speed
Unknown
Apparent Right ascension
Unknown
Apparent Declination
Unknown
Sunlit
N/A
Visualization observer readout
Local Sidereal Time
10:39:52
Azimuth
Unknown
Elevation
Unknown
Doppler factor
Unknown
Orbital elements
Apogee altitude
572.158 km
Perigee altitude
567.862 km
Semi-major axis
6,948.147 km
Eccentricity
0.00031
Inclination
69.9987°
RAAN
111.561°
Arg. of periapsis
269.4529°
True anomaly
90.66303°
Mean anomaly
90.6276°
Eccentric anomaly
90.64531°
Mean motion
3.74748 °/min
Orbital period
96.06 mins
BSTAR
0.000013008
Loading maneuver chart data...
Computing Atmospheric mass density...

Documentation

Showing up to 5 results
|